Hourly Data Report for September 24, 2017

All times are specified in Local Standard Time (LST). Add 1 hour to adjust for Daylight Saving Time where and when it is observed.

ARCTIC BAY CS
NUNAVUT

72°59'34.000" N
85°00'44.000" W
10.00 m
2400404
71592
XAT

Download Data

Hourly Data (September 2017)
Hourly Data Report for September 24, 2017
Temp Definition
°C
Dew Point Temp Definition
°C
Rel Hum Definition
%
Wind Dir Definition
10's deg

Wind Spd Definition
km/h
Visibility Definition
km
Stn Press Definition
kPa
Hmdx Definition


Wind Chill Definition


Weather Definition


TIME
00:00 -2.0 -4.4 84 34 2   101.36   -3 LegendNANA
01:00 -3.8 -6.3 83 36 9   101.35   -8 LegendNANA
02:00 -2.3 -5.0 82 35 6   101.37   -5 LegendNANA
03:00 -2.4 -5.1 82 4 2   101.40   -3 LegendNANA
04:00 -2.3 -4.5 85 8 6   101.42   -5 LegendNANA
05:00 -3.0 -6.1 79 9 6   101.43   -5 LegendNANA
06:00 -3.0 -6.0 80 10 7   101.45   -6 LegendNANA
07:00 -3.9 -7.3 77 11 2   101.46   -5 LegendNANA
08:00 -3.5 -6.6 79 7 10   101.45   -7 LegendNANA
09:00 -3.3 -6.2 80 13 4   101.43   -5 LegendNANA
10:00 -2.0 -5.7 76 16 3   101.41   -3 LegendNANA
11:00 -1.2 -5.3 74 3 8   101.39   -4 LegendNANA
12:00 -0.9 -5.0 74 35 15   101.37   -6 LegendNANA
13:00 -1.6 -5.5 75 1 12   101.35   -6 LegendNANA
14:00 -0.9 -4.7 75 32 13   101.35   -5 LegendNANA
15:00 -0.9 -3.8 80 33 17   101.32   -6 LegendNANA
16:00 -0.2 -3.5 78 30 20   101.28   -5 LegendNANA
17:00 -0.4 -3.3 81 32 30   101.22   -7 LegendNANA
18:00 -1.0 -4.6 76 34 22   101.20   -7 LegendNANA
19:00 -1.3 -4.8 77 33 22   101.15   -7 LegendNANA
20:00 -1.4 -5.1 76 34 39   101.09   -9 LegendNANA
21:00 -1.4 -5.8 72 33 20   101.11   -7 LegendNANA
22:00 -2.4 -6.8 72 35 23   101.01   -9 LegendNANA
23:00 -1.9 -5.9 74 35 28   101.00   -9 LegendNANA

Notes on Data Quality.

Legend

  • E = Estimated
  • M = Missing
  • NA = Not Available
  • ‡ = Partner data that is not subject to review by the National Climate Archives
Date modified: